| time (UTC) | temp C | wind direction | speed KPH | gust KPH | rain 1hr cm | rain 24hr cm | rain mn cm | humidity % | barometer mb |
| 20260505100000 | 11 | 271 | 1.6 | 1.6 | 0.00 | 0.00 | 0.00 | 60 | 1017.7 |
| 20260505092959 | 11 | 263 | 1.6 | 1.6 | 0.00 | 0.00 | 0.00 | 58 | 1017.6 |
| 20260505091958 | 11 | 138 | 0.0 | 3.2 | 0.00 | 0.00 | 0.00 | 57 | 1017.5 |
| 20260505090958 | 11 | 285 | 1.6 | 6.4 | 0.00 | 0.00 | 0.00 | 56 | 1017.5 |
| 20260505090001 | 11 | 263 | 1.6 | 3.2 | 0.00 | 0.00 | 0.00 | 57 | 1017.3 |
| 20260505085000 | 11 | 263 | 1.6 | 4.8 | 0.00 | 0.00 | 0.00 | 57 | 1017.2 |
| 20260505083959 | 12 | 264 | 1.6 | 4.8 | 0.00 | 0.00 | 0.00 | 55 | 1017.3 |
| 20260505083000 | 12 | 222 | 3.2 | 11.3 | 0.00 | 0.00 | 0.00 | 54 | 1017.1 |
| 20260505081959 | 12 | 256 | 1.6 | 6.4 | 0.00 | 0.00 | 0.00 | 55 | 1017.0 |
| 20260505080959 | 12 | 277 | 3.2 | 9.7 | 0.00 | 0.00 | 0.00 | 56 | 1016.9 |
| 20260505080000 | 12 | 294 | 3.2 | 8.0 | 0.00 | 0.00 | 0.00 | 57 | 1016.9 |
| 20260505075000 | 12 | 300 | 3.2 | 8.0 | 0.00 | 0.00 | 0.00 | 58 | 1016.8 |
| 20260505073959 | 12 | 283 | 4.8 | 11.3 | 0.00 | 0.00 | 0.00 | 57 | 1017.0 |
| 20260505073000 | 12 | 283 | 3.2 | 8.0 | 0.00 | 0.00 | 0.00 | 58 | 1016.9 |
| 20260505072000 | 12 | 276 | 3.2 | 12.9 | 0.00 | 0.00 | 0.00 | 58 | 1017.1 |
| 20260505070001 | 12 | 259 | 3.2 | 6.4 | 0.00 | 0.00 | 0.00 | 59 | 1017.1 |
| 20260505065000 | 12 | 236 | 3.2 | 6.4 | 0.00 | 0.00 | 0.00 | 58 | 1017.2 |
| 20260505063959 | 12 | 242 | 3.2 | 6.4 | 0.00 | 0.00 | 0.00 | 58 | 1017.4 |
| 20260505063000 | 12 | 238 | 3.2 | 4.8 | 0.00 | 0.00 | 0.00 | 58 | 1017.4 |
| 20260505062000 | 12 | 277 | 1.6 | 6.4 | 0.00 | 0.00 | 0.00 | 58 | 1017.5 |
| 20260505060001 | 12 | 266 | 1.6 | 3.2 | 0.00 | 0.00 | 0.00 | 58 | 1017.6 |
| 20260505054959 | 12 | 245 | 1.6 | 4.8 | 0.00 | 0.00 | 0.00 | 58 | 1017.6 |
| 20260505054000 | 12 | 273 | 3.2 | 4.8 | 0.00 | 0.00 | 0.00 | 57 | 1017.6 |
| 20260505052958 | 12 | 281 | 3.2 | 4.8 | 0.00 | 0.00 | 0.00 | 57 | 1017.7 |
| 20260505051959 | 12 | 280 | 1.6 | 4.8 | 0.00 | 0.00 | 0.00 | 57 | 1017.7 |
| 20260505051000 | 12 | 256 | 1.6 | 4.8 | 0.00 | 0.00 | 0.00 | 57 | 1017.7 |
| 20260505041000 | 13 | 252 | 1.6 | 4.8 | 0.00 | 0.00 | 0.00 | 55 | 1017.9 |
| 20260505040005 | 13 | 266 | 1.6 | 3.2 | 0.00 | 0.00 | 0.00 | 55 | 1017.9 |
| 20260505034001 | 13 | 243 | 1.6 | 4.8 | 0.00 | 0.00 | 0.00 | 55 | 1017.9 |
| 20260505033001 | 13 | 270 | 1.6 | 4.8 | 0.00 | 0.00 | 0.00 | 54 | 1018.0 |
| 20260505032001 | 13 | 264 | 1.6 | 4.8 | 0.00 | 0.00 | 0.00 | 55 | 1018.2 |
| 20260505031000 | 13 | 263 | 3.2 | 4.8 | 0.00 | 0.00 | 0.00 | 55 | 1018.2 |
| 20260505030002 | 13 | 248 | 1.6 | 4.8 | 0.00 | 0.00 | 0.00 | 55 | 1018.2 |
| 20260505023000 | 13 | 262 | 1.6 | 3.2 | 0.00 | 0.00 | 0.00 | 55 | 1018.1 |
| 20260505021001 | 13 | 271 | 1.6 | 3.2 | 0.00 | 0.00 | 0.00 | 55 | 1018.0 |
| 20260505020002 | 13 | 243 | 1.6 | 3.2 | 0.00 | 0.00 | 0.00 | 55 | 1018.0 |
| 20260505015001 | 13 | 263 | 1.6 | 3.2 | 0.00 | 0.00 | 0.00 | 55 | 1017.9 |
| 20260505012002 | 13 | 309 | 1.6 | 3.2 | 0.00 | 0.00 | 0.00 | 55 | 1017.8 |
| 20260505010959 | 13 | 259 | 0.0 | 3.2 | 0.00 | 0.00 | 0.00 | 55 | 1017.6 |
| 20260505010002 | 14 | 283 | 0.0 | 3.2 | 0.00 | 0.00 | 0.00 | 54 | 1017.8 |
| 20260505003959 | 15 | 256 | 0.0 | 1.6 | 0.00 | 0.00 | 0.00 | 52 | 1017.5 |
| 20260505003001 | 15 | 274 | 1.6 | 3.2 | 0.00 | 0.00 | 0.00 | 50 | 1017.3 |
| 20260505000002 | 16 | 359 | 1.6 | 1.6 | 0.00 | 0.00 | 0.00 | 46 | 1017.3 |
| 20260504235001 | 16 | 303 | 1.6 | 3.2 | 0.00 | 0.00 | 0.00 | 46 | 1017.1 |
| 20260504233001 | 16 | 246 | 0.0 | 1.6 | 0.00 | 0.00 | 0.00 | 45 | 1017.1 |
| 20260504230959 | 16 | 359 | 0.0 | 3.2 | 0.00 | 0.00 | 0.00 | 45 | 1017.0 |
| 20260504230001 | 16 | 267 | 0.0 | 1.6 | 0.00 | 0.00 | 0.00 | 46 | 1017.0 |
| 20260504225001 | 16 | 302 | 0.0 | 1.6 | 0.00 | 0.00 | 0.00 | 46 | 1017.0 |
| 20260504224001 | 16 | 302 | 0.0 | 1.6 | 0.00 | 0.00 | 0.00 | 44 | 1016.9 |
| 20260504223000 | 16 | 236 | 0.0 | 1.6 | 0.00 | 0.00 | 0.00 | 41 | 1017.1 |
| 20260504222000 | 16 | 242 | 0.0 | 1.6 | 0.00 | 0.00 | 0.00 | 43 | 1017.1 |
| 20260504220959 | 17 | 243 | 0.0 | 1.6 | 0.00 | 0.00 | 0.00 | 40 | 1017.2 |
| 20260504220004 | 17 | 249 | 0.0 | 1.6 | 0.00 | 0.00 | 0.00 | 39 | 1017.2 |
| 20260504215001 | 17 | 228 | 1.6 | 1.6 | 0.00 | 0.00 | 0.00 | 38 | 1017.2 |
| 20260504213959 | 17 | 256 | 1.6 | 3.2 | 0.00 | 0.00 | 0.00 | 37 | 1017.2 |
| 20260504213001 | 18 | 255 | 1.6 | 3.2 | 0.00 | 0.00 | 0.00 | 40 | 1017.2 |
| 20260504212000 | 18 | 248 | 1.6 | 3.2 | 0.00 | 0.00 | 0.00 | 38 | 1017.2 |
| 20260504211000 | 18 | 248 | 1.6 | 4.8 | 0.00 | 0.00 | 0.00 | 36 | 1017.1 |
| 20260504210002 | 18 | 250 | 1.6 | 3.2 | 0.00 | 0.00 | 0.00 | 39 | 1017.1 |
| 20260504204959 | 18 | 257 | 1.6 | 3.2 | 0.00 | 0.00 | 0.00 | 35 | 1017.2 |
| 20260504204001 | 19 | 248 | 1.6 | 3.2 | 0.00 | 0.00 | 0.00 | 33 | 1017.1 |
| 20260504203001 | 20 | 304 | 1.6 | 3.2 | 0.00 | 0.00 | 0.00 | 33 | 1017.1 |
| 20260504201001 | 21 | 326 | 0.0 | 3.2 | 0.00 | 0.00 | 0.00 | 37 | 1017.3 |
| 20260504200002 | 20 | 246 | 1.6 | 3.2 | 0.00 | 0.00 | 0.00 | 34 | 1017.4 |
| 20260504194959 | 20 | 50 | 1.6 | 6.4 | 0.00 | 0.00 | 0.00 | 35 | 1017.5 |
| 20260504194001 | 20 | 247 | 1.6 | 4.8 | 0.00 | 0.00 | 0.00 | 35 | 1017.6 |
| 20260504192959 | 20 | 20 | 1.6 | 8.0 | 0.00 | 0.00 | 0.00 | 34 | 1017.8 |
| 20260504191959 | 21 | 76 | 3.2 | 4.8 | 0.00 | 0.00 | 0.00 | 35 | 1017.8 |
| 20260504190958 | 21 | 355 | 1.6 | 4.8 | 0.00 | 0.00 | 0.00 | 35 | 1017.9 |
| 20260504190003 | 21 | 315 | 1.6 | 4.8 | 0.00 | 0.00 | 0.00 | 37 | 1017.9 |
| 20260504185001 | 21 | 360 | 1.6 | 4.8 | 0.00 | 0.00 | 0.00 | 36 | 1018.1 |
| 20260504184000 | 21 | 66 | 1.6 | 4.8 | 0.00 | 0.00 | 0.00 | 35 | 1018.2 |
| 20260504183000 | 21 | 191 | 1.6 | 6.4 | 0.00 | 0.00 | 0.00 | 33 | 1018.3 |
| 20260504182000 | 20 | 249 | 1.6 | 6.4 | 0.00 | 0.00 | 0.00 | 35 | 1018.4 |
| 20260504174959 | 21 | 276 | 1.6 | 4.8 | 0.00 | 0.00 | 0.00 | 29 | 1018.6 |
| 20260504173959 | 21 | 355 | 1.6 | 4.8 | 0.00 | 0.00 | 0.00 | 32 | 1018.8 |
| 20260504172000 | 21 | 278 | 0.0 | 4.8 | 0.00 | 0.00 | 0.00 | 31 | 1018.9 |
| 20260504151000 | 18 | 116 | 1.6 | 8.0 | 0.00 | 0.00 | 0.00 | 37 | 1020.2 |
| 20260504140959 | 16 | 225 | 1.6 | 8.0 | 0.00 | 0.00 | 0.00 | 40 | 1020.0 |